Tracking 18630 objects as of 23-May-2017
HD Live streaming from Space Station
objects crossing your sky now

NAVSTAR 37 (USA 117)

Track NAVSTAR 37 (USA 117) now!
NAVSTAR 37 (USA 117) is classified as:


NORAD ID: 23833
Int'l Code: 1996-019A
Perigee: 20,703.1 km
Apogee: 20,751.9 km
Inclination: 54.4 °
Period: 739.9 minutes
Semi major axis: 27098 km
RCS: 4.1981 m2 (large)
Launch date: March 28, 1996
Source: United States (US)
Launch site: AIR FORCE EASTERN TEST RANGE (AFETR)
PRN:
Your satellite tracking list
Your tracking list is empty





NASA's NSSDC Master Catalog

Two Line Element Set (TLE):
1 23833U 96019A   17142.82108774 -.00000069 +00000-0 +00000-0 0  9992
2 23833 054.4292 033.6227 0008999 301.7189 351.8068 01.94618585018292
Source of the keplerian elements: AFSPC